Skip Page Navigation
NASA JPL Caltech
NASA Logo - Jet Propulsion Laboratory + View the NASA Portal
+ Center for Near-Earth Object Studies
JPL Home Earth Solar System Stars & Galaxies Technology
JPL Solar System Dynamics
BODIES ORBITS EPHEMERIDES TOOLS PHYSICAL DATA DISCOVERY FAQ SITE MAP
IMPORTANT: The SSD Announcement email list is now available. Major changes are coming in the near future, including possible hostname and/or URL changes. To be notified of such changes, subscribe to this email list.

Please visit this page for more details.


JPL Small-Body Database Browser
Search: [ help ]  
423911 (2006 SB316)
Classification: Main-belt Asteroid          SPK-ID: 2423911
Ephemeris | Orbit Diagram | Orbital Elements | Mission Design | Physical Parameters | Discovery Circumstances ]

[ show orbit diagram ]
Orbital Elements at Epoch 2459000.5 (2020-May-31.0) TDB
Reference: JPL 12 (heliocentric ecliptic J2000)
 Element Value Uncertainty (1-sigma)   Units 
e .1593157772770631 4.4282e-08  
a 2.375272224825751 1.6137e-08 au
q 1.996853884083018 1.0545e-07 au
i 2.462615950536249 5.1251e-06 deg
node 77.16073107905923 0.00021704 deg
peri .2840224631698303 0.00022158 deg
M 219.450692006275 4.5023e-05 deg
tp 2459522.529112404611
(2021-Nov-04.02911240)
0.00016683 TDB
period 1337.114235198159
3.66
1.3626e-05
3.731e-08
d
yr
n .2692365323196551 2.7437e-09 deg/d
Q 2.753690565568485 1.8708e-08 au
  Orbit Determination Parameters
   # obs. used (total)      95  
   data-arc span      8067 days (22.09 yr)  
   first obs. used      1995-10-20  
   last obs. used      2017-11-20  
   planetary ephem.      DE431  
   SB-pert. ephem.      SB431-N16  
   condition code      0  
   norm. resid. RMS      .54414  
   source      ORB  
   producer      Otto Matic  
   solution date      2019-Jul-14 14:11:02  

Additional Information
 Earth MOID = 1.01225 au 
 Jupiter MOID = 2.48592 au 
 T_jup = 3.523 
[ show covariance matrix ]

Ephemeris | Orbit Diagram | Orbital Elements | Mission Design | Physical Parameters | Discovery Circumstances ]

Physical Parameter Table
Parameter Symbol Value Units Sigma Reference Notes
absolute magnitude H 18.3   n/a MPO427997  

423911 (2006 SB316)          Discovered 1995-Oct-20 by Spacewatch at Kitt Peak
Reference: Last Updated: 2015-02-04

Alternate Designations
 2006 SB316 = 1995 UE72 
Ephemeris | Orbit Diagram | Orbital Elements | Mission Design | Physical Parameters | Discovery Circumstances ]
ABOUT SSD CREDITS/AWARDS PRIVACY/COPYRIGHT GLOSSARY LINKS
FirstGov 2020-Feb-20 10:58 UT
(server date/time)  
NASA Home Page
Site Manager:   Ryan S. Park
Webmaster  Alan B. Chamberlin